Home > Weather > Brasilia > Past weeks

Flag for Brazil Weather for the Past 2 Weeks in Brasilia, Distrito Federal, Brazil

Now
82 °F

Scattered clouds.


Feels Like: 83 °F
Forecast: N/A
Wind: 10 mph from Northwest

Location: Brasilia Aeroporto

Current Time: Feb 11, 2016 at 8:14:38 PM

Latest Report: Feb 11, 2016 at 7:00 PM


Visibility: N/A

Pressure: 29.98 "Hg (26.49 "Hg at 1091m altitude)

Humidity: 51%

Dew point: 63 °F

Location of BrasiliaLocation

Historic Weather in Brasilia — Graph

°F

Brasilia Temperature Yesterday

Maximum temperature yesterday: 88 °F (at 6:00 PM)
Minimum temperature yesterday: 63 °F (at 7:00 AM)
Average temperature yesterday: 75 °F

High & Low Weather Summary for the Past Weeks

 TemperatureHumidityPressure
High88 °F (Feb 7, 4:00 PM)100% (Feb 1, 7:00 AM)30.24 "Hg (Feb 1, 7:00 AM)
Low59 °F (Feb 1, 7:00 AM)25% (Feb 8, 8:00 PM)29.98 "Hg (Jan 27, 7:00 PM)
Average74 °F71%30.11 "Hg
* Reported Jan 27 7:00 PM — Feb 11 7:00 PM, Brasilia, Weather by CustomWeather, © 2016

Note: Actual official high and low records may vary slightly from our data, if they occured in-between our weather recording intervals... More about our weather records

Advertising

Brasilia Weather History for the Previous 24 Hours

 ConditionsComfort  
Time TempWeatherWind HumidityBarometerVisibility
7:00 PM
Thu, Feb 11
82 °FScattered clouds.10 mph51%29.98 "HgN/A
6:00 PM84 °FPartly sunny.9 mph48%29.98 "HgN/A
5:00 PM88 °FPartly sunny.7 mph43%30.01 "HgN/A
4:00 PM86 °FPartly sunny.10 mph46%30.04 "HgN/A
3:00 PM86 °FPartly sunny.3 mph40%30.07 "HgN/A
2:00 PM88 °FPartly sunny.5 mph38%30.09 "HgN/A
1:00 PM84 °FPartly sunny.6 mph43%30.09 "HgN/A
12:00 PM86 °FPartly sunny.7 mph40%30.12 "HgN/A
11:00 AM82 °FScattered clouds.7 mph48%30.15 "HgN/A
10:00 AM79 °FScattered clouds.5 mph65%30.15 "HgN/A
9:00 AM77 °FScattered clouds.No wind69%30.12 "HgN/A
8:00 AM72 °FPassing clouds.No wind83%30.12 "HgN/A
7:00 AM66 °FPartly cloudy.3 mph94%30.09 "HgN/A
6:00 AM64 °FPassing clouds.3 mph94%30.09 "HgN/A
5:00 AM66 °FPassing clouds.No wind88%30.09 "HgN/A
4:00 AM66 °FPassing clouds.No wind88%30.09 "HgN/A
3:00 AM68 °FPassing clouds.No wind88%30.09 "HgN/A
2:00 AM70 °FPassing clouds.3 mph83%30.09 "HgN/A
1:00 AM70 °FPassing clouds.2 mph83%30.12 "HgN/A
12:00 AM70 °FPassing clouds.3 mph88%30.12 "HgN/A
11:00 PM
Wed, Feb 10
72 °FPassing clouds.3 mph78%30.12 "HgN/A
10:00 PM73 °FThundershowers. Passing clouds.2 mph74%30.09 "HgN/A
9:00 PM75 °FThundershowers. Passing clouds.2 mph65%30.09 "HgN/A
8:00 PM79 °FThundershowers. Passing clouds.6 mph58%30.07 "HgN/A
Weather by CustomWeather, © 2016

See weather overviewHow to use our weather pages